Wetterdaten: Woche 28.11.22 - 04.12.22 (KW48)
Datum Zeit Temp. Aussen Temp. o. S. Temp +5cm Feuchte Auss Luftdruck Regen Sonnenschein Regendauer Solar Windben Empfang
28.11.2022 00:00 6,6 C 5,7 C 2,5 C 94 % 1012,0 hPa 0,6 l/m 0,00 h 0,83 h 0 W/m 21,4 km/h (4 Bft) 91,68 %
28.11.2022 01:00 6,6 C 6,1 C 2,8 C 95 % 1011,5 hPa 0,0 l/m 0,00 h 0,00 h 0 W/m 20,9 km/h (4 Bft) 96,30 %
28.11.2022 02:00 6,6 C 6,1 C 2,8 C 95 % 1011,0 hPa 0,0 l/m 0,00 h 0,03 h 0 W/m 21,7 km/h (4 Bft) 96,20 %
28.11.2022 03:00 6,6 C 5,9 C 2,8 C 95 % 1011,0 hPa 0,6 l/m 0,00 h 0,63 h 0 W/m 17,8 km/h (3 Bft) 96,04 %
28.11.2022 04:00 6,3 C 5,6 C 2,8 C 96 % 1010,7 hPa 1,0 l/m 0,00 h 0,97 h 0 W/m 14,4 km/h (3 Bft) 96,44 %
28.11.2022 05:00 6,2 C 5,6 C 2,8 C 97 % 1010,8 hPa 0,4 l/m 0,00 h 0,80 h 0 W/m 13,2 km/h (3 Bft) 97,11 %
28.11.2022 06:00 6,1 C 5,6 C 2,8 C 97 % 1010,8 hPa 0,8 l/m 0,00 h 0,73 h 0 W/m 14,3 km/h (3 Bft) 99,14 %
28.11.2022 07:00 6,0 C 5,6 C 2,8 C 97 % 1010,5 hPa 0,0 l/m 0,00 h 0,00 h 0 W/m 12,4 km/h (3 Bft) 94,38 %
28.11.2022 08:00 6,1 C 5,6 C 2,9 C 98 % 1010,7 hPa 0,0 l/m 0,00 h 0,00 h 8 W/m 9,2 km/h (2 Bft) 98,23 %
28.11.2022 09:00 6,2 C 5,6 C 3,3 C 98 % 1010,9 hPa 0,0 l/m 0,00 h 0,17 h 14 W/m 10,4 km/h (2 Bft) 97,20 %
28.11.2022 10:00 6,3 C 5,7 C 3,3 C 98 % 1011,2 hPa 0,8 l/m 0,00 h 1,00 h 29 W/m 7,5 km/h (2 Bft) 97,08 %
28.11.2022 11:00 6,7 C 6,1 C 3,8 C 98 % 1011,1 hPa 0,8 l/m 0,00 h 1,00 h 57 W/m 9,1 km/h (2 Bft) 95,50 %
28.11.2022 12:00 7,0 C 6,2 C 4,2 C 98 % 1011,1 hPa 0,4 l/m 0,00 h 0,53 h 34 W/m 6,0 km/h (2 Bft) 97,01 %
28.11.2022 13:00 7,1 C 6,3 C 4,4 C 98 % 1011,2 hPa 1,0 l/m 0,00 h 0,50 h 28 W/m 7,3 km/h (2 Bft) 95,75 %
28.11.2022 14:00 7,2 C 6,7 C 4,5 C 99 % 1011,2 hPa 0,8 l/m 0,00 h 0,87 h 26 W/m 5,3 km/h (1 Bft) 92,66 %
28.11.2022 15:00 7,5 C 6,7 C 5,0 C 99 % 1011,4 hPa 0,0 l/m 0,00 h 0,10 h 10 W/m 3,7 km/h (1 Bft) 97,53 %
28.11.2022 16:00 7,6 C 6,7 C 5,0 C 99 % 1011,8 hPa 0,0 l/m 0,00 h 0,00 h 0 W/m 5,1 km/h (1 Bft) 95,41 %
28.11.2022 17:00 7,7 C 7,1 C 5,1 C 99 % 1012,1 hPa 0,0 l/m 0,00 h 0,00 h 0 W/m 4,2 km/h (1 Bft) 97,45 %
28.11.2022 18:00 7,9 C 7,2 C 5,6 C 99 % 1012,5 hPa 0,4 l/m 0,00 h 0,07 h 0 W/m 2,6 km/h (1 Bft) 98,01 %
28.11.2022 19:00 8,1 C 7,2 C 5,6 C 99 % 1012,8 hPa 0,2 l/m 0,00 h 0,00 h 0 W/m 2,2 km/h (1 Bft) 95,74 %
28.11.2022 20:00 8,3 C 7,5 C 5,8 C 99 % 1013,1 hPa 0,0 l/m 0,00 h 0,00 h 0 W/m 0,9 km/h (0 Bft) 97,65 %
28.11.2022 21:00 8,3 C 7,8 C 5,8 C 100 % 1013,4 hPa 0,0 l/m 0,00 h 0,00 h 0 W/m 1,3 km/h (1 Bft) 98,08 %
28.11.2022 22:00 8,2 C 7,7 C 5,6 C 100 % 1013,7 hPa 0,0 l/m 0,00 h 0,00 h 0 W/m 2,2 km/h (1 Bft) 95,89 %
28.11.2022 23:00 8,1 C 7,3 C 5,6 C 100 % 1014,0 hPa 0,0 l/m 0,00 h 0,00 h 0 W/m 0,7 km/h (0 Bft) 99,00 %
29.11.2022 00:00 8,0 C 7,2 C 5,6 C 100 % 1014,3 hPa 0,0 l/m 0,00 h 0,00 h 0 W/m 0,9 km/h (0 Bft) 96,55 %
29.11.2022 01:00 8,0 C 7,2 C 5,6 C 100 % 1014,5 hPa 0,2 l/m 0,00 h 0,00 h 0 W/m 1,9 km/h (1 Bft) 96,66 %
29.11.2022 02:00 7,9 C 7,2 C 5,6 C 100 % 1014,7 hPa 0,0 l/m 0,00 h 0,00 h 0 W/m 0,0 km/h (0 Bft) 96,64 %
29.11.2022 03:00 7,9 C 7,2 C 5,6 C 99 % 1014,9 hPa 0,0 l/m 0,00 h 0,00 h 0 W/m 0,0 km/h (0 Bft) 98,86 %
29.11.2022 04:00 7,9 C 7,2 C 5,6 C 99 % 1015,4 hPa 0,0 l/m 0,00 h 0,00 h 0 W/m 2,3 km/h (1 Bft) 95,80 %
29.11.2022 05:00 7,8 C 7,2 C 5,6 C 99 % 1015,8 hPa 0,0 l/m 0,00 h 0,00 h 0 W/m 7,1 km/h (2 Bft) 97,22 %
29.11.2022 06:00 7,6 C 7,2 C 5,6 C 100 % 1016,4 hPa 0,0 l/m 0,00 h 0,00 h 0 W/m 3,4 km/h (1 Bft) 98,23 %
29.11.2022 07:00 7,4 C 6,7 C 5,6 C 99 % 1017,1 hPa 0,0 l/m 0,00 h 0,00 h 0 W/m 1,2 km/h (1 Bft) 95,67 %
29.11.2022 08:00 7,4 C 6,9 C 5,6 C 99 % 1017,5 hPa 0,0 l/m 0,00 h 0,00 h 6 W/m 0,1 km/h (0 Bft) 93,98 %
29.11.2022 09:00 7,6 C 7,2 C 5,6 C 100 % 1018,0 hPa 0,0 l/m 0,00 h 0,00 h 16 W/m 0,0 km/h (0 Bft) 98,59 %
29.11.2022 10:00 7,6 C 7,2 C 5,6 C 100 % 1018,7 hPa 0,0 l/m 0,00 h 0,00 h 34 W/m 3,5 km/h (1 Bft) 95,80 %
29.11.2022 11:00 7,8 C 7,7 C 6,1 C 100 % 1019,0 hPa 0,0 l/m 0,00 h 0,00 h 48 W/m 3,3 km/h (1 Bft) 98,08 %
29.11.2022 12:00 8,1 C 7,9 C 6,1 C 100 % 1019,0 hPa 0,0 l/m 0,00 h 0,00 h 45 W/m 4,2 km/h (1 Bft) 96,94 %
29.11.2022 13:00 8,2 C 7,9 C 6,1 C 99 % 1019,4 hPa 0,0 l/m 0,00 h 0,00 h 37 W/m 3,9 km/h (1 Bft) 96,44 %
29.11.2022 14:00 7,9 C 7,8 C 6,1 C 99 % 1019,8 hPa 0,0 l/m 0,00 h 0,00 h 26 W/m 4,2 km/h (1 Bft) 98,93 %
29.11.2022 15:00 7,9 C 7,3 C 5,9 C 99 % 1020,2 hPa 0,0 l/m 0,00 h 0,00 h 9 W/m 5,3 km/h (1 Bft) 96,94 %
29.11.2022 16:00 7,6 C 7,2 C 5,6 C 99 % 1020,6 hPa 0,0 l/m 0,00 h 0,00 h 0 W/m 5,0 km/h (1 Bft) 97,14 %
29.11.2022 17:00 7,4 C 6,6 C 5,4 C 99 % 1020,9 hPa 0,0 l/m 0,00 h 0,00 h 0 W/m 1,8 km/h (1 Bft) 96,25 %
29.11.2022 18:00 6,7 C 5,7 C 4,4 C 99 % 1021,0 hPa 0,0 l/m 0,00 h 0,00 h 0 W/m 0,2 km/h (0 Bft) 97,26 %
29.11.2022 19:00 6,1 C 5,0 C 3,4 C 98 % 1021,1 hPa 0,0 l/m 0,00 h 0,00 h 0 W/m 0,1 km/h (0 Bft) 96,51 %
29.11.2022 20:00 5,4 C 4,4 C 2,9 C 98 % 1021,4 hPa 0,0 l/m 0,00 h 0,00 h 0 W/m 0,5 km/h (0 Bft) 97,31 %
29.11.2022 21:00 5,8 C 5,4 C 3,9 C 99 % 1021,8 hPa 0,0 l/m 0,00 h 0,00 h 0 W/m 0,0 km/h (0 Bft) 98,65 %
29.11.2022 22:00 6,4 C 5,9 C 4,4 C 99 % 1022,0 hPa 0,0 l/m 0,00 h 0,03 h 0 W/m 3,1 km/h (1 Bft) 96,30 %
29.11.2022 23:00 6,5 C 6,1 C 4,4 C 99 % 1022,1 hPa 0,0 l/m 0,00 h 0,00 h 0 W/m 5,2 km/h (1 Bft) 96,86 %
30.11.2022 00:00 6,3 C 5,6 C 4,4 C 99 % 1022,3 hPa 0,0 l/m 0,00 h 0,00 h 0 W/m 6,2 km/h (2 Bft) 97,12 %
30.11.2022 01:00 6,4 C 5,7 C 4,4 C 99 % 1022,2 hPa 0,0 l/m 0,00 h 0,07 h 0 W/m 4,1 km/h (1 Bft) 98,57 %
30.11.2022 02:00 6,6 C 6,1 C 5,0 C 99 % 1022,4 hPa 0,0 l/m 0,00 h 0,00 h 0 W/m 3,0 km/h (1 Bft) 96,65 %
30.11.2022 03:00 6,8 C 6,1 C 5,0 C 99 % 1022,5 hPa 0,0 l/m 0,00 h 0,00 h 0 W/m 3,6 km/h (1 Bft) 91,78 %
30.11.2022 04:00 6,5 C 6,0 C 4,9 C 99 % 1022,5 hPa 0,0 l/m 0,00 h 0,00 h 0 W/m 6,0 km/h (2 Bft) 85,87 %
30.11.2022 05:00 6,1 C 5,6 C 4,4 C 99 % 1022,8 hPa 0,0 l/m 0,00 h 0,00 h 0 W/m 3,1 km/h (1 Bft) 93,24 %
30.11.2022 06:00 5,9 C 5,4 C 4,3 C 99 % 1023,1 hPa 0,0 l/m 0,00 h 0,00 h 0 W/m 2,3 km/h (1 Bft) 97,41 %
30.11.2022 07:00 5,2 C 4,2 C 3,2 C 99 % 1023,3 hPa 0,2 l/m 0,00 h 0,00 h 0 W/m 1,1 km/h (0 Bft) 96,45 %
30.11.2022 08:00 4,5 C 3,6 C 2,8 C 99 % 1023,5 hPa 0,0 l/m 0,00 h 0,00 h 8 W/m 1,5 km/h (1 Bft) 93,97 %
30.11.2022 09:00 5,0 C 4,6 C 3,3 C 99 % 1024,1 hPa 0,0 l/m 0,00 h 0,00 h 8 W/m 6,1 km/h (2 Bft) 98,08 %
30.11.2022 10:00 5,3 C 5,0 C 3,7 C 99 % 1024,3 hPa 0,0 l/m 0,00 h 0,00 h 15 W/m 7,3 km/h (2 Bft) 97,72 %
30.11.2022 11:00 5,6 C 5,5 C 4,2 C 99 % 1024,2 hPa 0,0 l/m 0,00 h 0,00 h 24 W/m 7,4 km/h (2 Bft) 96,21 %
30.11.2022 12:00 6,0 C 6,0 C 4,7 C 99 % 1024,2 hPa 0,0 l/m 0,00 h 0,00 h 32 W/m 5,3 km/h (1 Bft) 98,29 %
30.11.2022 13:00 6,2 C 6,1 C 5,0 C 99 % 1024,2 hPa 0,0 l/m 0,00 h 0,00 h 29 W/m 5,2 km/h (1 Bft) 96,80 %
30.11.2022 14:00 6,4 C 6,1 C 5,0 C 99 % 1024,3 hPa 0,0 l/m 0,00 h 0,00 h 17 W/m 5,0 km/h (1 Bft) 97,67 %
30.11.2022 15:00 6,4 C 6,1 C 4,9 C 98 % 1024,5 hPa 0,0 l/m 0,00 h 0,00 h 7 W/m 7,6 km/h (2 Bft) 95,14 %
30.11.2022 16:00 6,3 C 5,8 C 4,4 C 98 % 1024,7 hPa 0,0 l/m 0,00 h 0,00 h 0 W/m 6,4 km/h (2 Bft) 99,17 %
30.11.2022 17:00 6,3 C 5,6 C 4,4 C 97 % 1025,0 hPa 0,0 l/m 0,00 h 0,00 h 0 W/m 5,6 km/h (1 Bft) 95,08 %
30.11.2022 18:00 6,3 C 5,6 C 4,4 C 97 % 1025,3 hPa 0,0 l/m 0,00 h 0,00 h 0 W/m 6,3 km/h (2 Bft) 97,11 %
30.11.2022 19:00 6,2 C 5,6 C 4,4 C 96 % 1025,7 hPa 0,0 l/m 0,00 h 0,00 h 0 W/m 4,9 km/h (1 Bft) 98,21 %
30.11.2022 20:00 6,1 C 5,6 C 4,1 C 96 % 1025,9 hPa 0,0 l/m 0,00 h 0,00 h 0 W/m 6,2 km/h (2 Bft) 94,98 %
30.11.2022 21:00 6,2 C 5,7 C 4,0 C 96 % 1026,2 hPa 0,0 l/m 0,00 h 0,00 h 0 W/m 5,9 km/h (2 Bft) 97,94 %
30.11.2022 22:00 6,2 C 5,6 C 3,9 C 96 % 1026,3 hPa 0,0 l/m 0,00 h 0,00 h 0 W/m 3,8 km/h (1 Bft) 96,58 %
30.11.2022 23:00 6,1 C 5,6 C 3,9 C 96 % 1026,2 hPa 0,0 l/m 0,00 h 0,00 h 0 W/m 5,2 km/h (1 Bft) 98,18 %
01.12.2022 00:00 6,0 C 5,6 C 3,9 C 96 % 1026,3 hPa 0,0 l/m 0,00 h 0,00 h 0 W/m 5,4 km/h (1 Bft) 96,02 %
01.12.2022 01:00 5,9 C 5,6 C 3,9 C 96 % 1026,3 hPa 0,0 l/m 0,00 h 0,00 h 0 W/m 5,9 km/h (2 Bft) 98,30 %
01.12.2022 02:00 5,8 C 5,1 C 3,6 C 96 % 1026,4 hPa 0,0 l/m 0,00 h 0,00 h 0 W/m 6,4 km/h (2 Bft) 97,71 %
01.12.2022 03:00 5,7 C 5,0 C 3,3 C 97 % 1026,6 hPa 0,0 l/m 0,00 h 0,00 h 0 W/m 7,9 km/h (2 Bft) 94,31 %
01.12.2022 04:00 5,6 C 5,0 C 3,3 C 97 % 1026,6 hPa 0,0 l/m 0,00 h 0,00 h 0 W/m 7,7 km/h (2 Bft) 98,33 %
01.12.2022 05:00 5,5 C 5,0 C 3,3 C 97 % 1026,7 hPa 0,0 l/m 0,00 h 0,00 h 0 W/m 8,5 km/h (2 Bft) 97,88 %
01.12.2022 06:00 5,4 C 5,0 C 3,3 C 97 % 1026,6 hPa 0,0 l/m 0,00 h 0,00 h 0 W/m 7,8 km/h (2 Bft) 95,76 %
01.12.2022 07:00 5,4 C 5,0 C 3,3 C 96 % 1026,9 hPa 0,0 l/m 0,00 h 0,00 h 0 W/m 9,5 km/h (2 Bft) 98,80 %
01.12.2022 08:00 5,4 C 5,0 C 3,3 C 96 % 1027,2 hPa 0,0 l/m 0,00 h 0,00 h 5 W/m 7,3 km/h (2 Bft) 97,11 %
01.12.2022 09:00 5,6 C 5,0 C 3,3 C 96 % 1027,4 hPa 0,0 l/m 0,00 h 0,00 h 12 W/m 10,7 km/h (2 Bft) 99,05 %
01.12.2022 10:00 5,7 C 5,3 C 3,3 C 95 % 1027,6 hPa 0,0 l/m 0,00 h 0,00 h 23 W/m 9,4 km/h (2 Bft) 98,66 %
01.12.2022 11:00 5,7 C 5,4 C 3,3 C 96 % 1027,4 hPa 0,0 l/m 0,00 h 0,00 h 29 W/m 10,9 km/h (2 Bft) 97,58 %
01.12.2022 12:00 5,7 C 5,6 C 3,3 C 95 % 1027,2 hPa 0,0 l/m 0,00 h 0,00 h 23 W/m 8,2 km/h (2 Bft) 97,18 %
01.12.2022 13:00 5,8 C 5,6 C 3,3 C 95 % 1027,0 hPa 0,0 l/m 0,00 h 0,00 h 34 W/m 8,0 km/h (2 Bft) 96,22 %
01.12.2022 14:00 5,9 C 5,8 C 3,9 C 94 % 1026,6 hPa 0,0 l/m 0,00 h 0,00 h 44 W/m 7,8 km/h (2 Bft) 98,72 %
01.12.2022 15:00 6,4 C 6,2 C 3,6 C 91 % 1026,5 hPa 0,0 l/m 0,00 h 0,00 h 23 W/m 7,7 km/h (2 Bft) 95,76 %
01.12.2022 16:00 6,2 C 5,7 C 3,2 C 90 % 1026,4 hPa 0,0 l/m 0,00 h 0,00 h 7 W/m 6,1 km/h (2 Bft) 98,36 %
01.12.2022 17:00 5,7 C 5,1 C 2,8 C 92 % 1026,6 hPa 0,0 l/m 0,00 h 0,00 h 0 W/m 7,3 km/h (2 Bft) 96,47 %
01.12.2022 18:00 5,5 C 5,0 C 2,8 C 92 % 1026,7 hPa 0,0 l/m 0,00 h 0,00 h 0 W/m 6,5 km/h (2 Bft) 95,66 %
01.12.2022 19:00 5,3 C 5,0 C 2,3 C 91 % 1026,8 hPa 0,0 l/m 0,00 h 0,00 h 0 W/m 7,7 km/h (2 Bft) 98,15 %
01.12.2022 20:00 5,1 C 4,5 C 2,2 C 91 % 1026,5 hPa 0,0 l/m 0,00 h 0,00 h 0 W/m 9,4 km/h (2 Bft) 98,01 %
01.12.2022 21:00 4,5 C 4,0 C 1,7 C 90 % 1026,6 hPa 0,0 l/m 0,00 h 0,00 h 0 W/m 7,3 km/h (2 Bft) 95,52 %
01.12.2022 22:00 4,3 C 3,9 C 1,6 C 91 % 1026,5 hPa 0,0 l/m 0,00 h 0,00 h 0 W/m 6,3 km/h (2 Bft) 97,80 %
01.12.2022 23:00 4,0 C 3,5 C 1,1 C 90 % 1026,2 hPa 0,0 l/m 0,00 h 0,00 h 0 W/m 8,2 km/h (2 Bft) 97,79 %
02.12.2022 00:00 3,9 C 3,3 C 1,1 C 90 % 1025,9 hPa 0,0 l/m 0,00 h 0,00 h 0 W/m 6,6 km/h (2 Bft) 96,84 %
02.12.2022 01:00 3,8 C 3,3 C 0,7 C 90 % 1025,6 hPa 0,0 l/m 0,00 h 0,00 h 0 W/m 8,6 km/h (2 Bft) 97,65 %
02.12.2022 02:00 3,5 C 2,9 C 0,6 C 91 % 1025,2 hPa 0,0 l/m 0,00 h 0,00 h 0 W/m 10,1 km/h (2 Bft) 97,22 %
02.12.2022 03:00 3,2 C 2,8 C 0,2 C 92 % 1025,1 hPa 0,0 l/m 0,00 h 0,00 h 0 W/m 8,8 km/h (2 Bft) 97,12 %
02.12.2022 04:00 3,0 C 2,8 C 0,0 C 92 % 1024,6 hPa 0,0 l/m 0,00 h 0,00 h 0 W/m 7,0 km/h (2 Bft) 96,00 %
02.12.2022 05:00 3,1 C 2,8 C 0,0 C 92 % 1024,2 hPa 0,0 l/m 0,00 h 0,00 h 0 W/m 7,9 km/h (2 Bft) 98,58 %
02.12.2022 06:00 3,1 C 2,8 C 0,0 C 92 % 1023,8 hPa 0,0 l/m 0,00 h 0,00 h 0 W/m 8,8 km/h (2 Bft) 97,02 %
02.12.2022 07:00 3,1 C 2,8 C 0,0 C 92 % 1023,6 hPa 0,0 l/m 0,00 h 0,00 h 0 W/m 12,2 km/h (2 Bft) 95,59 %
02.12.2022 08:00 3,1 C 2,8 C 0,0 C 93 % 1023,7 hPa 0,0 l/m 0,00 h 0,00 h 0 W/m 11,2 km/h (2 Bft) 98,00 %
02.12.2022 09:00 2,9 C 2,4 C 0,0 C 94 % 1023,6 hPa 0,0 l/m 0,00 h 0,00 h 7 W/m 14,2 km/h (3 Bft) 96,58 %
02.12.2022 10:00 3,2 C 3,1 C 0,5 C 94 % 1023,5 hPa 0,0 l/m 0,00 h 0,00 h 18 W/m 11,4 km/h (2 Bft) 97,34 %
02.12.2022 11:00 3,2 C 3,0 C 0,6 C 93 % 1023,3 hPa 0,0 l/m 0,00 h 0,00 h 20 W/m 15,1 km/h (3 Bft) 94,67 %
02.12.2022 12:00 3,2 C 3,2 C 0,6 C 91 % 1023,0 hPa 0,0 l/m 0,00 h 0,00 h 41 W/m 15,2 km/h (3 Bft) 99,03 %
02.12.2022 13:00 3,3 C 3,2 C 0,5 C 90 % 1022,6 hPa 0,0 l/m 0,00 h 0,00 h 43 W/m 14,7 km/h (3 Bft) 95,88 %
02.12.2022 14:00 3,2 C 2,9 C 0,0 C 89 % 1022,4 hPa 0,0 l/m 0,00 h 0,00 h 35 W/m 14,7 km/h (3 Bft) 98,28 %
02.12.2022 15:00 3,2 C 2,8 C 0,0 C 88 % 1022,5 hPa 0,0 l/m 0,00 h 0,00 h 19 W/m 17,3 km/h (3 Bft) 96,77 %
02.12.2022 16:00 3,0 C 2,6 C -0,3 C 88 % 1022,8 hPa 0,0 l/m 0,00 h 0,00 h 1 W/m 16,0 km/h (3 Bft) 95,88 %
02.12.2022 17:00 2,8 C 2,2 C -0,6 C 88 % 1022,9 hPa 0,0 l/m 0,00 h 0,00 h 0 W/m 15,5 km/h (3 Bft) 98,60 %
02.12.2022 18:00 2,6 C 2,2 C -0,7 C 88 % 1023,1 hPa 0,0 l/m 0,00 h 0,00 h 0 W/m 16,0 km/h (3 Bft) 98,49 %
02.12.2022 19:00 2,3 C 1,9 C -1,1 C 88 % 1023,2 hPa 0,0 l/m 0,00 h 0,00 h 0 W/m 15,4 km/h (3 Bft) 94,15 %
02.12.2022 20:00 2,1 C 1,5 C -1,4 C 89 % 1023,1 hPa 0,0 l/m 0,00 h 0,00 h 0 W/m 15,7 km/h (3 Bft) 96,70 %
02.12.2022 21:00 1,6 C 1,1 C -1,7 C 92 % 1023,2 hPa 0,0 l/m 0,00 h 0,00 h 0 W/m 16,3 km/h (3 Bft) 97,54 %
02.12.2022 22:00 1,6 C 1,1 C -1,7 C 93 % 1023,0 hPa 0,0 l/m 0,00 h 0,00 h 0 W/m 14,8 km/h (3 Bft) 95,17 %
02.12.2022 23:00 1,6 C 1,1 C -1,7 C 93 % 1023,1 hPa 0,0 l/m 0,00 h 0,00 h 0 W/m 14,0 km/h (3 Bft) 98,28 %
03.12.2022 00:00 1,7 C 1,1 C -1,6 C 92 % 1022,9 hPa 0,0 l/m 0,00 h 0,00 h 0 W/m 13,2 km/h (3 Bft) 95,84 %
03.12.2022 01:00 1,7 C 1,1 C -1,6 C 91 % 1022,6 hPa 0,0 l/m 0,00 h 0,00 h 0 W/m 10,2 km/h (2 Bft) 96,16 %
03.12.2022 02:00 1,8 C 1,1 C -1,1 C 91 % 1022,6 hPa 0,0 l/m 0,00 h 0,00 h 0 W/m 10,1 km/h (2 Bft) 96,18 %
03.12.2022 03:00 1,8 C 1,1 C -1,1 C 91 % 1022,4 hPa 0,0 l/m 0,00 h 0,00 h 0 W/m 9,7 km/h (2 Bft) 99,01 %
03.12.2022 04:00 1,7 C 1,1 C -1,7 C 91 % 1022,2 hPa 0,0 l/m 0,00 h 0,00 h 0 W/m 9,7 km/h (2 Bft) 95,46 %
03.12.2022 05:00 1,7 C 1,1 C -1,7 C 92 % 1021,9 hPa 0,0 l/m 0,00 h 0,00 h 0 W/m 8,7 km/h (2 Bft) 96,94 %
03.12.2022 06:00 1,5 C 1,1 C -1,7 C 92 % 1021,7 hPa 0,0 l/m 0,00 h 0,00 h 0 W/m 9,3 km/h (2 Bft) 98,67 %
03.12.2022 07:00 1,3 C 0,6 C -1,8 C 91 % 1021,7 hPa 0,0 l/m 0,00 h 0,00 h 0 W/m 8,7 km/h (2 Bft) 95,14 %
03.12.2022 08:00 1,1 C 0,6 C -2,2 C 92 % 1021,6 hPa 0,0 l/m 0,00 h 0,00 h 14 W/m 8,0 km/h (2 Bft) 96,30 %
03.12.2022 09:00 1,5 C 1,7 C -1,3 C 90 % 1021,7 hPa 0,0 l/m 0,77 h 0,00 h 79 W/m 14,0 km/h (3 Bft) 96,37 %
03.12.2022 10:00 2,1 C 2,7 C -0,8 C 88 % 1021,7 hPa 0,0 l/m 0,50 h 0,00 h 131 W/m 10,3 km/h (2 Bft) 97,58 %
03.12.2022 11:00 2,2 C 2,2 C -0,6 C 87 % 1021,3 hPa 0,0 l/m 0,00 h 0,00 h 79 W/m 10,6 km/h (2 Bft) 96,79 %
03.12.2022 12:00 2,4 C 2,8 C -0,6 C 87 % 1020,6 hPa 0,0 l/m 0,00 h 0,00 h 92 W/m 8,8 km/h (2 Bft) 93,88 %
03.12.2022 13:00 2,6 C 2,7 C -0,6 C 87 % 1019,9 hPa 0,0 l/m 0,00 h 0,00 h 82 W/m 11,2 km/h (2 Bft) 95,45 %
03.12.2022 14:00 2,2 C 1,9 C -1,1 C 87 % 1019,5 hPa 0,0 l/m 0,00 h 0,00 h 35 W/m 12,0 km/h (2 Bft) 98,11 %
03.12.2022 15:00 2,0 C 1,7 C -1,1 C 88 % 1019,3 hPa 0,0 l/m 0,00 h 0,00 h 16 W/m 8,9 km/h (2 Bft) 94,88 %
03.12.2022 16:00 1,8 C 1,1 C -1,7 C 89 % 1019,2 hPa 0,0 l/m 0,00 h 0,00 h 5 W/m 10,2 km/h (2 Bft) 98,02 %
03.12.2022 17:00 1,7 C 1,1 C -1,7 C 89 % 1019,1 hPa 0,0 l/m 0,00 h 0,00 h 0 W/m 10,2 km/h (2 Bft) 94,22 %
03.12.2022 18:00 1,6 C 1,2 C -1,7 C 89 % 1019,0 hPa 0,0 l/m 0,00 h 0,00 h 0 W/m 10,0 km/h (2 Bft) 98,38 %
03.12.2022 19:00 1,7 C 1,6 C -1,7 C 89 % 1018,7 hPa 0,0 l/m 0,00 h 0,00 h 0 W/m 8,9 km/h (2 Bft) 98,29 %
03.12.2022 20:00 1,5 C 1,1 C -1,7 C 89 % 1018,6 hPa 0,0 l/m 0,00 h 0,00 h 0 W/m 9,7 km/h (2 Bft) 95,23 %
03.12.2022 21:00 1,3 C 1,1 C -2,1 C 90 % 1018,5 hPa 0,0 l/m 0,00 h 0,00 h 0 W/m 10,2 km/h (2 Bft) 98,43 %
03.12.2022 22:00 1,2 C 0,6 C -2,2 C 90 % 1018,3 hPa 0,0 l/m 0,00 h 0,00 h 0 W/m 8,0 km/h (2 Bft) 97,37 %
03.12.2022 23:00 1,1 C 0,6 C -2,2 C 91 % 1018,1 hPa 0,0 l/m 0,00 h 0,00 h 0 W/m 9,0 km/h (2 Bft) 94,38 %
04.12.2022 00:00 1,1 C 0,6 C -2,2 C 91 % 1017,8 hPa 0,0 l/m 0,00 h 0,00 h 0 W/m 9,0 km/h (2 Bft) 95,29 %
04.12.2022 01:00 1,0 C 0,6 C -2,2 C 92 % 1017,6 hPa 0,0 l/m 0,00 h 0,00 h 0 W/m 8,6 km/h (2 Bft) 98,09 %
04.12.2022 02:00 0,9 C 0,6 C -2,2 C 92 % 1017,5 hPa 0,0 l/m 0,00 h 0,00 h 0 W/m 9,2 km/h (2 Bft) 97,23 %
04.12.2022 03:00 0,9 C 0,6 C -2,2 C 92 % 1017,3 hPa 0,0 l/m 0,00 h 0,00 h 0 W/m 9,7 km/h (2 Bft) 96,08 %
04.12.2022 04:00 1,0 C 0,6 C -2,2 C 92 % 1017,3 hPa 0,0 l/m 0,00 h 0,00 h 0 W/m 7,6 km/h (2 Bft) 98,51 %
04.12.2022 05:00 0,6 C -0,2 C -2,7 C 92 % 1017,3 hPa 0,0 l/m 0,00 h 0,00 h 0 W/m 7,5 km/h (2 Bft) 95,81 %
04.12.2022 06:00 0,0 C -1,1 C -3,3 C 93 % 1017,1 hPa 0,0 l/m 0,00 h 0,00 h 0 W/m 4,3 km/h (1 Bft) 96,74 %
04.12.2022 07:00 -0,1 C -0,9 C -3,3 C 94 % 1017,2 hPa 0,0 l/m 0,00 h 0,00 h 0 W/m 5,4 km/h (1 Bft) 96,72 %
04.12.2022 08:00 0,1 C -0,3 C -2,8 C 94 % 1017,5 hPa 0,0 l/m 0,00 h 0,00 h 5 W/m 6,2 km/h (2 Bft) 97,73 %
04.12.2022 09:00 0,6 C 0,5 C -2,2 C 93 % 1017,7 hPa 0,0 l/m 0,00 h 0,00 h 11 W/m 8,5 km/h (2 Bft) 95,66 %
04.12.2022 10:00 0,9 C 0,8 C -2,1 C 91 % 1017,7 hPa 0,0 l/m 0,00 h 0,00 h 31 W/m 7,7 km/h (2 Bft) 97,30 %
04.12.2022 11:00 1,2 C 1,1 C -1,7 C 89 % 1017,7 hPa 0,0 l/m 0,00 h 0,00 h 41 W/m 9,3 km/h (2 Bft) 97,51 %
04.12.2022 12:00 1,4 C 1,1 C -1,7 C 87 % 1017,1 hPa 0,0 l/m 0,00 h 0,00 h 43 W/m 9,8 km/h (2 Bft) 97,69 %
04.12.2022 13:00 1,6 C 1,2 C -1,7 C 88 % 1016,9 hPa 0,0 l/m 0,00 h 0,00 h 31 W/m 8,6 km/h (2 Bft) 97,15 %
04.12.2022 14:00 1,7 C 1,2 C -1,7 C 88 % 1016,6 hPa 0,0 l/m 0,00 h 0,00 h 22 W/m 8,3 km/h (2 Bft) 97,06 %
04.12.2022 15:00 1,9 C 1,6 C -1,7 C 89 % 1016,4 hPa 0,0 l/m 0,00 h 0,00 h 11 W/m 5,4 km/h (1 Bft) 93,24 %
04.12.2022 16:00 1,9 C 1,2 C -1,3 C 90 % 1016,5 hPa 0,0 l/m 0,00 h 0,00 h 0 W/m 2,0 km/h (1 Bft) 97,74 %
04.12.2022 17:00 2,2 C 1,7 C -1,1 C 92 % 1016,5 hPa 0,0 l/m 0,00 h 0,00 h 0 W/m 4,2 km/h (1 Bft) 98,51 %
04.12.2022 18:00 2,3 C 1,7 C -1,1 C 92 % 1016,8 hPa 0,0 l/m 0,00 h 0,00 h 0 W/m 5,0 km/h (1 Bft) 93,27 %
04.12.2022 19:00 2,4 C 1,7 C -1,1 C 93 % 1016,6 hPa 0,0 l/m 0,00 h 0,00 h 0 W/m 5,6 km/h (1 Bft) 99,22 %
04.12.2022 20:00 2,4 C 1,9 C -0,7 C 93 % 1016,7 hPa 0,0 l/m 0,00 h 0,00 h 0 W/m 7,9 km/h (2 Bft) 96,44 %
04.12.2022 21:00 2,4 C 1,7 C -1,0 C 93 % 1016,9 hPa 0,0 l/m 0,00 h 0,00 h 0 W/m 7,9 km/h (2 Bft) 97,15 %
04.12.2022 22:00 2,3 C 1,7 C -1,1 C 93 % 1016,7 hPa 0,0 l/m 0,00 h 0,00 h 0 W/m 9,7 km/h (2 Bft) 97,86 %
04.12.2022 23:00 2,3 C 1,7 C -1,1 C 94 % 1017,0 hPa 0,0 l/m 0,00 h 0,03 h 0 W/m 8,9 km/h (2 Bft) 95,40 %
Min-Datum _ 04.12.22 04.12.22 04.12.22 03.12.22 28.11.22 - - - - 28.11.22 28.11.22
_ Min-Zeit 07:04 05:58 05:48 11:00 07:18 - - - - 12:08 00:04
Minimum _ -0,2 C -1,1 C -3,3 C 86 % 1010,3 hPa - - - - 0,0 km/h (0 Bft) 4,76 %
Max-Datum _ 28.11.22 29.11.22 28.11.22 28.11.22 01.12.22 28.11.22 03.12.22 28.11.22 03.12.22 28.11.22 28.11.22
_ Max-Zeit 20:42 12:46 20:38 21:06 10:56 04:14 09:06 05:13 10:22 00:32 00:10
Maximum _ 8,4 C 8,3 C 6,1 C 100 % 1027,7 hPa 1,0 l/m 0,03 h 0,08 h 236 W/m 32,2 km/h
S-SO (5 Bft)
100,00 %
Durchschnitt _ 4,6 C 4,1 C 1,9 C 94 % 1020,3 hPa #8,2 l/m #1:16 h #8:22 h 29 W/m 7,8 km/h (2 Bft) 96,75 %
© 2022 W. Hausmann